Tracking 18945 objects as of 19-Jan-2018
HD Live streaming from Space Station
objects crossing your sky now

NADEZHDA 5

Track NADEZHDA 5 now!
10-day predictions
NADEZHDA 5 is classified as:


NORAD ID: 25567
Int'l Code: 1998-072A
Perigee: 981.2 km
Apogee: 1,019.0 km
Inclination: 82.9 °
Period: 105.0 minutes
Semi major axis: 7371 km
RCS: 2.009 m2 (large)
Launch date: December 10, 1998
Source: Commonwealth of Independent States (former USSR) (CIS)
Launch site: PLESETSK MISSILE AND SPACE COMPLEX (PKMTR)

Out of service
aabbcc
Your satellite tracking list
Your tracking list is empty




NASA's NSSDC Master Catalog

Two Line Element Set (TLE):
1 25567U 98072A   18018.47444597  .00000028  00000-0  14164-4 0  9993
2 25567  82.9466 189.8967 0025642 355.0762  56.4125 13.71831051956707
Source of the keplerian elements: AFSPC